,,,PA_Meas_PMT16A,,PR_Meas_QMR101_102,,RH_Meas_QMH101,,SR_Meas_QMS101,,TA_Meas_QMH101,,GenWind,,GenWind,
date,time,status,PA,status,PR,status,RH,status,SR,status,TA,status,DirAvg,status,SpdAvg,
2011-03-01, 00:00:04,VALID,1008.92,VALID,0,VALID,103.192,VALID,0.105969,VALID,23.7701,VALID,57,VALID,0,
2011-03-01, 00:01:04,VALID,1008.91,VALID,0,VALID,103.245,VALID,0,VALID,23.7312,VALID,57,VALID,0,
2011-03-01, 00:02:04,VALID,1008.88,VALID,0,VALID,103.344,VALID,0,VALID,23.7312,VALID,57,VALID,0,
2011-03-01, 00:03:04,VALID,1008.85,VALID,0,VALID,103.39,VALID,0,VALID,23.7312,VALID,57,VALID,0,
2011-03-01, 00:04:04,VALID,1008.83,VALID,0,VALID,103.398,VALID,0,VALID,23.7525,VALID,57,VALID,0,
2011-03-01, 00:05:04,VALID,1008.84,VALID,0,VALID,103.398,VALID,0,VALID,23.7117,VALID,57,VALID,0,
2011-03-01, 00:06:04,VALID,1008.87,VALID,0,VALID,103.382,VALID,0,VALID,23.6727,VALID,57,VALID,0,
2011-03-01, 00:07:04,VALID,1008.87,VALID,0,VALID,103.42,VALID,0,VALID,23.6727,VALID,57,VALID,0,
2011-03-01, 00:08:04,VALID,1008.87,VALID,0,VALID,103.527,VALID,0,VALID,23.694,VALID,57,VALID,0.10625,
2011-03-01, 00:09:04,VALID,1008.86,VALID,0,VALID,103.596,VALID,0,VALID,23.6958,VALID,57,VALID,0,
2011-03-01, 00:10:04,VALID,1008.83,VALID,0,VALID,103.611,VALID,0,VALID,23.7153,VALID,57,VALID,0,
2011-03-01, 00:11:04,VALID,1008.79,VALID,0,VALID,103.626,VALID,0,VALID,23.694,VALID,57,VALID,0,
2011-03-01, 00:12:04,VALID,1008.8,VALID,0,VALID,103.642,VALID,0,VALID,23.694,VALID,51,VALID,0.153125,
2011-03-01, 00:13:04,VALID,1008.79,VALID,0,VALID,103.642,VALID,0,VALID,23.7348,VALID,51,VALID,0.168359,
2011-03-01, 00:14:04,VALID,1008.78,VALID,0,VALID,103.626,VALID,0,VALID,23.7135,VALID,51,VALID,0,
2011-03-01, 00:15:04,VALID,1008.77,VALID,0,VALID,103.626,VALID,0,VALID,23.7135,VALID,51,VALID,0.151562,
2011-03-01, 00:16:04,VALID,1008.74,VALID,0,VALID,103.603,VALID,0,VALID,23.7135,VALID,335,VALID,0.360938,
2011-03-01, 00:17:04,VALID,1008.77,VALID,0,VALID,103.596,VALID,0,VALID,23.733,VALID,335,VALID,0.15,
2011-03-01, 00:18:04,VALID,1008.76,VALID,0,VALID,103.55,VALID,0,VALID,23.7135,VALID,335,VALID,0,
2011-03-01, 00:19:04,VALID,1008.77,VALID,0,VALID,103.52,VALID,0,VALID,23.7135,VALID,335,VALID,0.115234,
2011-03-01, 00:20:04,VALID,1008.73,VALID,0,VALID,103.481,VALID,0,VALID,23.7135,VALID,335,VALID,0.201953,
2011-03-01, 00:21:04,VALID,1008.7,VALID,0,VALID,103.52,VALID,0,VALID,23.6922,VALID,335,VALID,0.330859,
2011-03-01, 00:22:04,VALID,1008.67,VALID,0,VALID,103.504,VALID,0,VALID,23.7135,VALID,333,VALID,0.280859,
2011-03-01, 00:23:04,VALID,1008.66,VALID,0,VALID,103.489,VALID,0,VALID,23.7135,VALID,318,VALID,0.214453,
2011-03-01, 00:24:04,VALID,1008.6,VALID,0,VALID,103.413,VALID,0,VALID,23.694,VALID,318,VALID,0.151562,
2011-03-01, 00:25:04,VALID,1008.6,VALID,0,VALID,103.321,VALID,0,VALID,23.6745,VALID,318,VALID,0.075,
2011-03-01, 00:26:04,VALID,1008.61,VALID,0,VALID,103.405,VALID,0,VALID,23.6745,VALID,318,VALID,0.496875,
2011-03-01, 00:27:04,VALID,1008.6,VALID,0,VALID,103.398,VALID,0,VALID,23.694,VALID,347,VALID,0.153906,
2011-03-01, 00:28:04,VALID,1008.56,VALID,0,VALID,103.398,VALID,0,VALID,23.6745,VALID,347,VALID,0.275,
2011-03-01, 00:29:04,VALID,1008.53,VALID,0,VALID,103.398,VALID,0,VALID,23.6745,VALID,346,VALID,0.0683594,
2011-03-01, 00:30:04,VALID,1008.48,VALID,0,VALID,103.428,VALID,0,VALID,23.694,VALID,306,VALID,0.142969,
2011-03-01, 00:31:04,VALID,1008.48,VALID,0,VALID,103.413,VALID,0,VALID,23.7153,VALID,306,VALID,0.0476562,
2011-03-01, 00:32:04,VALID,1008.43,VALID,0,VALID,103.359,VALID,0,VALID,23.694,VALID,325,VALID,0.24375,
2011-03-01, 00:33:04,VALID,1008.42,VALID,0,VALID,103.344,VALID,0,VALID,23.6745,VALID,325,VALID,0,
2011-03-01, 00:34:04,VALID,1008.38,VALID,0,VALID,103.306,VALID,0,VALID,23.6745,VALID,325,VALID,0.00351562,
2011-03-01, 00:35:04,VALID,1008.37,VALID,0,VALID,103.253,VALID,0,VALID,23.6356,VALID,325,VALID,0.192188,
2011-03-01, 00:36:04,VALID,1008.37,VALID,0,VALID,103.245,VALID,0,VALID,23.6161,VALID,325,VALID,0,
2011-03-01, 00:37:04,VALID,1008.37,VALID,0,VALID,103.276,VALID,0,VALID,23.5771,VALID,325,VALID,0,
2011-03-01, 00:38:04,VALID,1008.38,VALID,0,VALID,103.306,VALID,0,VALID,23.5789,VALID,325,VALID,0,
2011-03-01, 00:39:04,VALID,1008.34,VALID,0,VALID,103.398,VALID,0,VALID,23.5186,VALID,325,VALID,0,
2011-03-01, 00:40:04,VALID,1008.36,VALID,0,VALID,103.481,VALID,0,VALID,23.5186,VALID,325,VALID,0.280469,
2011-03-01, 00:41:04,VALID,1008.34,VALID,0,VALID,103.581,VALID,0,VALID,23.5186,VALID,325,VALID,0,
2011-03-01, 00:42:04,VALID,1008.31,VALID,0,VALID,103.626,VALID,0,VALID,23.5399,VALID,325,VALID,0,
2011-03-01, 00:43:04,VALID,1008.32,VALID,0,VALID,103.649,VALID,0,VALID,23.4992,VALID,325,VALID,0,
2011-03-01, 00:44:04,VALID,1008.31,VALID,0,VALID,103.687,VALID,0,VALID,23.5204,VALID,325,VALID,0.152344,
2011-03-01, 00:45:04,VALID,1008.31,VALID,0,VALID,103.733,VALID,0,VALID,23.4992,VALID,325,VALID,0.236719,
2011-03-01, 00:46:04,VALID,1008.31,VALID,0,VALID,103.802,VALID,0,VALID,23.5186,VALID,325,VALID,0,
2011-03-01, 00:47:04,VALID,1008.33,VALID,0,VALID,103.817,VALID,0,VALID,23.5186,VALID,325,VALID,0,
2011-03-01, 00:48:04,VALID,1008.33,VALID,0,VALID,103.825,VALID,0,VALID,23.5399,VALID,325,VALID,0.0535156,
2011-03-01, 00:49:04,VALID,1008.32,VALID,0,VALID,103.832,VALID,0,VALID,23.5186,VALID,325,VALID,0,
2011-03-01, 00:50:04,VALID,1008.32,VALID,0,VALID,103.794,VALID,0,VALID,23.5204,VALID,325,VALID,0.104687,
2011-03-01, 00:51:04,VALID,1008.33,VALID,0,VALID,103.817,VALID,0,VALID,23.4992,VALID,325,VALID,0.197266,
2011-03-01, 00:52:04,VALID,1008.33,VALID,0,VALID,103.817,VALID,0,VALID,23.4992,VALID,325,VALID,0.0257812,
2011-03-01, 00:53:04,VALID,1008.3,VALID,0,VALID,103.802,VALID,0,VALID,23.4992,VALID,325,VALID,0,
2011-03-01, 00:54:04,VALID,1008.26,VALID,0,VALID,103.787,VALID,0,VALID,23.4992,VALID,325,VALID,0.0183594,
2011-03-01, 00:55:04,VALID,1008.25,VALID,0,VALID,103.771,VALID,0,VALID,23.4797,VALID,325,VALID,0,
2011-03-01, 00:56:04,VALID,1008.23,VALID,0,VALID,103.787,VALID,0,VALID,23.4797,VALID,325,VALID,0.420703,
2011-03-01, 00:57:04,VALID,1008.21,VALID,0,VALID,103.779,VALID,0,VALID,23.4797,VALID,340,VALID,0.366016,
2011-03-01, 00:58:04,VALID,1008.2,VALID,0,VALID,103.748,VALID,0,VALID,23.4407,VALID,338,VALID,0.255078,
2011-03-01, 00:59:04,VALID,1008.16,VALID,0,VALID,103.779,VALID,0,VALID,23.4602,VALID,337,VALID,0.409375,
2011-03-01, 01:00:04,VALID,1008.13,VALID,0,VALID,103.756,VALID,0,VALID,23.4407,VALID,337,VALID,0.0351563,
2011-03-01, 01:01:04,VALID,1008.09,VALID,0,VALID,103.703,VALID,0,VALID,23.4017,VALID,342,VALID,0.457812,
2011-03-01, 01:02:04,VALID,1008.11,VALID,0,VALID,103.733,VALID,0,VALID,23.3823,VALID,342,VALID,0.175,
2011-03-01, 01:03:04,VALID,1008.08,VALID,0,VALID,103.756,VALID,0,VALID,23.3628,VALID,342,VALID,0,
2011-03-01, 01:04:04,VALID,1008.07,VALID,0,VALID,103.794,VALID,0,VALID,23.3433,VALID,342,VALID,0.126563,
2011-03-01, 01:05:04,VALID,1008.03,VALID,0,VALID,103.848,VALID,0,VALID,23.3433,VALID,346,VALID,0.878516,
2011-03-01, 01:06:04,VALID,1008.05,VALID,0,VALID,103.954,VALID,0,VALID,23.3433,VALID,342,VALID,0.404687,
2011-03-01, 01:07:04,VALID,1008.05,VALID,0,VALID,103.985,VALID,0,VALID,23.3645,VALID,331,VALID,0.275391,
2011-03-01, 01:08:04,VALID,1008.02,VALID,0,VALID,104,VALID,0,VALID,23.3433,VALID,342,VALID,0.417188,
2011-03-01, 01:09:04,VALID,1007.99,VALID,0,VALID,104,VALID,0,VALID,23.3645,VALID,29,VALID,0.303906,
2011-03-01, 01:10:04,VALID,1007.96,VALID,0,VALID,104,VALID,0,VALID,23.3433,VALID,349,VALID,0.323828,
2011-03-01, 01:11:04,VALID,1007.97,VALID,0,VALID,103.977,VALID,0,VALID,23.3238,VALID,21,VALID,0.641797,
2011-03-01, 01:12:04,VALID,1007.97,VALID,0,VALID,103.992,VALID,0,VALID,23.3451,VALID,329,VALID,0.644531,
2011-03-01, 01:13:04,VALID,1007.97,VALID,0,VALID,104,VALID,0,VALID,23.3238,VALID,329,VALID,0.108984,
2011-03-01, 01:14:04,VALID,1007.97,VALID,0,VALID,104,VALID,0,VALID,23.3238,VALID,329,VALID,0.0691406,
2011-03-01, 01:15:04,VALID,1007.95,VALID,0,VALID,104,VALID,0,VALID,23.3433,VALID,333,VALID,0.530469,
2011-03-01, 01:16:04,VALID,1007.96,VALID,0,VALID,104,VALID,0,VALID,23.3628,VALID,318,VALID,0.439063,
2011-03-01, 01:17:04,VALID,1007.95,VALID,0,VALID,104,VALID,0,VALID,23.3823,VALID,318,VALID,0.757813,
2011-03-01, 01:18:04,VALID,1007.93,VALID,0,VALID,104,VALID,0,VALID,23.3823,VALID,331,VALID,0.158984,
2011-03-01, 01:19:04,VALID,1007.92,VALID,0,VALID,104,VALID,0,VALID,23.3628,VALID,331,VALID,0.334375,
2011-03-01, 01:20:04,VALID,1007.92,VALID,0,VALID,103.992,VALID,0,VALID,23.3628,VALID,331,VALID,0.0242187,
2011-03-01, 01:21:04,VALID,1007.93,VALID,0,VALID,103.97,VALID,0,VALID,23.3628,VALID,333,VALID,0.492578,
2011-03-01, 01:22:04,VALID,1007.92,VALID,0,VALID,103.977,VALID,0,VALID,23.3628,VALID,334,VALID,0.469141,
2011-03-01, 01:23:04,VALID,1007.92,VALID,0,VALID,104,VALID,0,VALID,23.3823,VALID,337,VALID,0.0242187,
2011-03-01, 01:24:04,VALID,1007.92,VALID,0,VALID,103.977,VALID,0,VALID,23.4035,VALID,352,VALID,0.630078,
2011-03-01, 01:25:04,VALID,1007.9,VALID,0,VALID,103.939,VALID,0,VALID,23.4035,VALID,356,VALID,0,
2011-03-01, 01:26:04,VALID,1007.88,VALID,0,VALID,103.901,VALID,0,VALID,23.384,VALID,356,VALID,0.0351563,
2011-03-01, 01:27:04,VALID,1007.87,VALID,0,VALID,103.878,VALID,0,VALID,23.3628,VALID,356,VALID,0,
2011-03-01, 01:28:04,VALID,1007.86,VALID,0,VALID,103.863,VALID,0,VALID,23.3433,VALID,356,VALID,0,
2011-03-01, 01:29:04,VALID,1007.87,VALID,0,VALID,103.832,VALID,0,VALID,23.3433,VALID,352,VALID,0.111328,
2011-03-01, 01:30:04,VALID,1007.87,VALID,0,VALID,103.87,VALID,0,VALID,23.3433,VALID,352,VALID,0.186719,
2011-03-01, 01:31:04,VALID,1007.86,VALID,0,VALID,103.916,VALID,0,VALID,23.3628,VALID,350,VALID,0.545313,
2011-03-01, 01:32:04,VALID,1007.82,VALID,0,VALID,103.954,VALID,0,VALID,23.3645,VALID,352,VALID,0.428516,
2011-03-01, 01:33:04,VALID,1007.82,VALID,0,VALID,103.947,VALID,0,VALID,23.4035,VALID,350,VALID,0.325,
2011-03-01, 01:34:04,VALID,1007.79,VALID,0,VALID,103.916,VALID,0,VALID,23.3628,VALID,350,VALID,0,
2011-03-01, 01:35:04,VALID,1007.76,VALID,0,VALID,103.87,VALID,0,VALID,23.384,VALID,73,VALID,0.303906,
2011-03-01, 01:36:04,VALID,1007.7,VALID,0,VALID,103.893,VALID,0,VALID,23.3628,VALID,60,VALID,0.0347656,
2011-03-01, 01:37:04,VALID,1007.69,VALID,0,VALID,103.863,VALID,0,VALID,23.3433,VALID,52,VALID,0.163672,
2011-03-01, 01:38:04,VALID,1007.66,VALID,0,VALID,103.832,VALID,0,VALID,23.3433,VALID,53,VALID,0.235156,
2011-03-01, 01:39:04,VALID,1007.65,VALID,0,VALID,103.832,VALID,0,VALID,23.3645,VALID,53,VALID,0.289844,
2011-03-01, 01:40:04,VALID,1007.66,VALID,0,VALID,103.817,VALID,0,VALID,23.3238,VALID,53,VALID,0,
2011-03-01, 01:41:04,VALID,1007.66,VALID,0,VALID,103.809,VALID,0,VALID,23.3043,VALID,53,VALID,0,
2011-03-01, 01:42:04,VALID,1007.63,VALID,0,VALID,103.855,VALID,0,VALID,23.3061,VALID,53,VALID,0,
2011-03-01, 01:43:04,VALID,1007.65,VALID,0,VALID,103.901,VALID,0,VALID,23.2848,VALID,50,VALID,0.298047,
2011-03-01, 01:44:04,VALID,1007.6,VALID,0,VALID,103.962,VALID,0,VALID,23.3256,VALID,358,VALID,0.495703,
2011-03-01, 01:45:04,VALID,1007.58,VALID,0,VALID,103.992,VALID,0,VALID,23.3238,VALID,28,VALID,0.395703,
2011-03-01, 01:46:04,VALID,1007.58,VALID,0,VALID,104,VALID,0,VALID,23.3043,VALID,20,VALID,0.0976563,
2011-03-01, 01:47:04,VALID,1007.58,VALID,0,VALID,103.947,VALID,0,VALID,23.3043,VALID,20,VALID,0,
2011-03-01, 01:48:04,VALID,1007.59,VALID,0,VALID,103.931,VALID,0,VALID,23.2848,VALID,20,VALID,0,
2011-03-01, 01:49:04,VALID,1007.59,VALID,0,VALID,103.916,VALID,0,VALID,23.2848,VALID,20,VALID,0,
2011-03-01, 01:50:04,VALID,1007.59,VALID,0,VALID,103.962,VALID,0,VALID,23.2848,VALID,8,VALID,0.615234,
2011-03-01, 01:51:04,VALID,1007.58,VALID,0,VALID,103.992,VALID,0,VALID,23.2848,VALID,8,VALID,0,
2011-03-01, 01:52:04,VALID,1007.59,VALID,0,VALID,104,VALID,0,VALID,23.2848,VALID,8,VALID,0,
2011-03-01, 01:53:04,VALID,1007.59,VALID,0,VALID,104,VALID,0.105969,VALID,23.2848,VALID,8,VALID,0,
2011-03-01, 01:54:04,VALID,1007.58,VALID,0,VALID,104,VALID,0,VALID,23.2636,VALID,8,VALID,0,
2011-03-01, 01:55:04,VALID,1007.6,VALID,0,VALID,104,VALID,0,VALID,23.2636,VALID,8,VALID,0,
2011-03-01, 01:56:04,VALID,1007.63,VALID,0,VALID,104,VALID,0.105969,VALID,23.2654,VALID,8,VALID,0,
2011-03-01, 01:57:04,VALID,1007.62,VALID,0,VALID,104,VALID,0.105969,VALID,23.2246,VALID,8,VALID,0,
2011-03-01, 01:58:04,VALID,1007.61,VALID,0,VALID,104,VALID,0.105969,VALID,23.2246,VALID,8,VALID,0,
2011-03-01, 01:59:04,VALID,1007.6,VALID,0,VALID,104,VALID,0.105969,VALID,23.2246,VALID,8,VALID,0,
2011-03-01, 02:00:04,VALID,1007.63,VALID,0,VALID,104,VALID,0.105969,VALID,23.2654,VALID,8,VALID,0.00117188,
2011-03-01, 02:01:04,VALID,1007.63,VALID,0,VALID,104,VALID,0.105969,VALID,23.2441,VALID,8,VALID,0,
2011-03-01, 02:02:04,VALID,1007.61,VALID,0,VALID,104,VALID,0.105969,VALID,23.2441,VALID,8,VALID,0,
2011-03-01, 02:03:04,VALID,1007.61,VALID,0,VALID,104,VALID,0.105969,VALID,23.2246,VALID,8,VALID,0,
2011-03-01, 02:04:04,VALID,1007.63,VALID,0,VALID,104,VALID,0.105969,VALID,23.2246,VALID,8,VALID,0,
2011-03-01, 02:05:04,VALID,1007.62,VALID,0,VALID,104,VALID,0.105969,VALID,23.2246,VALID,8,VALID,0,
2011-03-01, 02:06:04,VALID,1007.62,VALID,0,VALID,104,VALID,0.105969,VALID,23.2051,VALID,8,VALID,0,
2011-03-01, 02:07:04,VALID,1007.61,VALID,0,VALID,104,VALID,0.105969,VALID,23.2051,VALID,8,VALID,0,
2011-03-01, 02:08:04,VALID,1007.6,VALID,0,VALID,104,VALID,0,VALID,23.2069,VALID,8,VALID,0,
2011-03-01, 02:09:04,VALID,1007.59,VALID,0,VALID,104,VALID,0,VALID,23.2069,VALID,8,VALID,0,
2011-03-01, 02:10:04,VALID,1007.59,VALID,0,VALID,104,VALID,0,VALID,23.2282,VALID,8,VALID,0,
2011-03-01, 02:11:04,VALID,1007.6,VALID,0,VALID,104,VALID,0,VALID,23.2282,VALID,8,VALID,0,
2011-03-01, 02:12:04,VALID,1007.62,VALID,0,VALID,104,VALID,0,VALID,23.2282,VALID,8,VALID,0,
2011-03-01, 02:13:04,VALID,1007.59,VALID,0,VALID,104,VALID,0,VALID,23.2069,VALID,8,VALID,0,
2011-03-01, 02:14:04,VALID,1007.58,VALID,0,VALID,104,VALID,0,VALID,23.1874,VALID,8,VALID,0,
2011-03-01, 02:15:04,VALID,1007.59,VALID,0,VALID,104,VALID,0,VALID,23.1874,VALID,8,VALID,0.0492188,
2011-03-01, 02:16:04,VALID,1007.6,VALID,0,VALID,104,VALID,0,VALID,23.1874,VALID,8,VALID,0,
2011-03-01, 02:17:04,VALID,1007.56,VALID,0,VALID,104,VALID,0,VALID,23.1874,VALID,8,VALID,0,
2011-03-01, 02:18:04,VALID,1007.54,VALID,0,VALID,104,VALID,0,VALID,23.1874,VALID,8,VALID,0,
2011-03-01, 02:19:04,VALID,1007.56,VALID,0,VALID,104,VALID,0,VALID,23.1679,VALID,8,VALID,0,
2011-03-01, 02:20:04,VALID,1007.57,VALID,0,VALID,104,VALID,0,VALID,23.1892,VALID,8,VALID,0,
2011-03-01, 02:21:04,VALID,1007.56,VALID,0,VALID,104,VALID,0,VALID,23.1485,VALID,8,VALID,0,
2011-03-01, 02:22:04,VALID,1007.57,VALID,0,VALID,104,VALID,0,VALID,23.1485,VALID,8,VALID,0,
2011-03-01, 02:23:04,VALID,1007.52,VALID,0,VALID,104,VALID,0,VALID,23.1485,VALID,8,VALID,0,
2011-03-01, 02:24:04,VALID,1007.5,VALID,0,VALID,104,VALID,0,VALID,23.1485,VALID,8,VALID,0,
2011-03-01, 02:25:04,VALID,1007.5,VALID,0,VALID,104,VALID,0,VALID,23.129,VALID,8,VALID,0,
2011-03-01, 02:26:04,VALID,1007.5,VALID,0,VALID,104,VALID,0,VALID,23.1095,VALID,8,VALID,0,
2011-03-01, 02:27:04,VALID,1007.47,VALID,0,VALID,104,VALID,0,VALID,23.09,VALID,8,VALID,0,
2011-03-01, 02:28:04,VALID,1007.45,VALID,0,VALID,104,VALID,0,VALID,23.1095,VALID,8,VALID,0,
2011-03-01, 02:29:04,VALID,1007.43,VALID,0,VALID,104,VALID,0,VALID,23.09,VALID,8,VALID,0,
2011-03-01, 02:30:04,VALID,1007.42,VALID,0,VALID,104,VALID,0,VALID,23.0511,VALID,8,VALID,0.164453,
2011-03-01, 02:31:04,VALID,1007.37,VALID,0,VALID,104,VALID,0,VALID,23.0705,VALID,8,VALID,0.0570313,
2011-03-01, 02:32:04,VALID,1007.35,VALID,0,VALID,104,VALID,0,VALID,23.0511,VALID,8,VALID,0,
2011-03-01, 02:33:04,VALID,1007.32,VALID,0,VALID,104,VALID,0,VALID,23.0511,VALID,8,VALID,0,
2011-03-01, 02:34:04,VALID,1007.34,VALID,0,VALID,104,VALID,0,VALID,23.0511,VALID,8,VALID,0,
2011-03-01, 02:35:04,VALID,1007.34,VALID,0,VALID,104,VALID,0,VALID,23.0333,VALID,8,VALID,0,
2011-03-01, 02:36:04,VALID,1007.32,VALID,0,VALID,104,VALID,0,VALID,23.0316,VALID,8,VALID,0,
2011-03-01, 02:37:04,VALID,1007.29,VALID,0,VALID,104,VALID,0,VALID,23.0316,VALID,8,VALID,0,
2011-03-01, 02:38:04,VALID,1007.25,VALID,0,VALID,104,VALID,0,VALID,23.0316,VALID,8,VALID,0,
2011-03-01, 02:39:04,VALID,1007.26,VALID,0,VALID,104,VALID,0,VALID,23.0333,VALID,8,VALID,0,
2011-03-01, 02:40:04,VALID,1007.27,VALID,0,VALID,104,VALID,0,VALID,23.0316,VALID,8,VALID,0,
2011-03-01, 02:41:04,VALID,1007.27,VALID,0,VALID,104,VALID,0,VALID,23.0316,VALID,8,VALID,0,
2011-03-01, 02:42:04,VALID,1007.25,VALID,0,VALID,104,VALID,0,VALID,23.0121,VALID,8,VALID,0,
2011-03-01, 02:43:04,VALID,1007.26,VALID,0,VALID,104,VALID,0,VALID,23.0121,VALID,8,VALID,0.0734375,
2011-03-01, 02:44:04,VALID,1007.26,VALID,0,VALID,104,VALID,0,VALID,23.0316,VALID,8,VALID,0,
2011-03-01, 02:45:04,VALID,1007.25,VALID,0,VALID,104,VALID,0,VALID,23.0316,VALID,8,VALID,0,
2011-03-01, 02:46:04,VALID,1007.25,VALID,0,VALID,104,VALID,0,VALID,23.0333,VALID,8,VALID,0,
2011-03-01, 02:47:04,VALID,1007.29,VALID,0,VALID,104,VALID,0,VALID,23.0121,VALID,8,VALID,0,
2011-03-01, 02:48:04,VALID,1007.31,VALID,0,VALID,104,VALID,0,VALID,23.0723,VALID,8,VALID,0.0140625,
2011-03-01, 02:49:04,VALID,1007.32,VALID,0,VALID,104,VALID,0,VALID,23.0511,VALID,8,VALID,0,
2011-03-01, 02:50:04,VALID,1007.32,VALID,0,VALID,104,VALID,0,VALID,23.0316,VALID,8,VALID,0,
2011-03-01, 02:51:04,VALID,1007.32,VALID,0,VALID,104,VALID,0,VALID,23.0511,VALID,8,VALID,0,
2011-03-01, 02:52:04,VALID,1007.34,VALID,0,VALID,104,VALID,0,VALID,23.0511,VALID,8,VALID,0,
2011-03-01, 02:53:04,VALID,1007.35,VALID,0,VALID,104,VALID,0,VALID,23.0511,VALID,8,VALID,0,
2011-03-01, 02:54:04,VALID,1007.34,VALID,0,VALID,104,VALID,0,VALID,23.0316,VALID,8,VALID,0,
2011-03-01, 02:55:04,VALID,1007.38,VALID,0,VALID,104,VALID,0,VALID,23.0316,VALID,8,VALID,0,
2011-03-01, 02:56:04,VALID,1007.36,VALID,0,VALID,104,VALID,0,VALID,23.0316,VALID,8,VALID,0,
2011-03-01, 02:57:04,VALID,1007.39,VALID,0,VALID,104,VALID,0,VALID,23.0316,VALID,8,VALID,0,
2011-03-01, 02:58:04,VALID,1007.38,VALID,0,VALID,104,VALID,0,VALID,23.0528,VALID,8,VALID,0.0195313,
2011-03-01, 02:59:04,VALID,1007.36,VALID,0,VALID,104,VALID,0,VALID,23.0316,VALID,8,VALID,0,
2011-03-01, 03:00:04,VALID,1007.37,VALID,0,VALID,104,VALID,0,VALID,23.0121,VALID,8,VALID,0,
2011-03-01, 03:01:04,VALID,1007.34,VALID,0,VALID,104,VALID,0,VALID,23.0121,VALID,8,VALID,0,
2011-03-01, 03:02:04,VALID,1007.35,VALID,0,VALID,104,VALID,0,VALID,23.0121,VALID,8,VALID,0.00507812,
2011-03-01, 03:03:04,VALID,1007.34,VALID,0,VALID,104,VALID,0,VALID,23.0121,VALID,8,VALID,0,
2011-03-01, 03:04:04,VALID,1007.38,VALID,0,VALID,104,VALID,0,VALID,23.0121,VALID,4,VALID,0.208594,
2011-03-01, 03:05:04,VALID,1007.42,VALID,0,VALID,104,VALID,0,VALID,23.0316,VALID,4,VALID,0.116797,
2011-03-01, 03:06:04,VALID,1007.4,VALID,0,VALID,104,VALID,0,VALID,23.0528,VALID,4,VALID,0.04375,
2011-03-01, 03:07:04,VALID,1007.39,VALID,0,VALID,104,VALID,0,VALID,22.9909,VALID,4,VALID,0,
2011-03-01, 03:08:04,VALID,1007.43,VALID,0,VALID,104,VALID,0,VALID,23.0121,VALID,4,VALID,0.0582031,
2011-03-01, 03:09:04,VALID,1007.44,VALID,0,VALID,104,VALID,0,VALID,23.0138,VALID,4,VALID,0,
2011-03-01, 03:10:04,VALID,1007.43,VALID,0,VALID,104,VALID,0,VALID,22.9926,VALID,4,VALID,0,
2011-03-01, 03:11:04,VALID,1007.43,VALID,0,VALID,104,VALID,0,VALID,22.9926,VALID,322,VALID,0.367188,
2011-03-01, 03:12:04,VALID,1007.47,VALID,0,VALID,104,VALID,0,VALID,23.0138,VALID,322,VALID,0.000390625,
2011-03-01, 03:13:04,VALID,1007.48,VALID,0,VALID,104,VALID,0,VALID,23.0121,VALID,323,VALID,0,
2011-03-01, 03:14:04,VALID,1007.45,VALID,0,VALID,104,VALID,0,VALID,22.9926,VALID,322,VALID,0,
2011-03-01, 03:15:04,VALID,1007.45,VALID,0,VALID,104,VALID,0,VALID,22.9926,VALID,322,VALID,0,
2011-03-01, 03:16:04,VALID,1007.47,VALID,0,VALID,104,VALID,0,VALID,22.9926,VALID,323,VALID,0,
2011-03-01, 03:17:04,VALID,1007.5,VALID,0,VALID,104,VALID,0,VALID,23.0138,VALID,323,VALID,0,
2011-03-01, 03:18:04,VALID,1007.5,VALID,0,VALID,104,VALID,0,VALID,22.9926,VALID,322,VALID,0,
2011-03-01, 03:19:04,VALID,1007.5,VALID,0,VALID,104,VALID,0,VALID,22.9926,VALID,322,VALID,0,
2011-03-01, 03:20:04,VALID,1007.52,VALID,0,VALID,104,VALID,0,VALID,22.9731,VALID,322,VALID,0,
2011-03-01, 03:21:04,VALID,1007.52,VALID,0,VALID,104,VALID,0,VALID,22.9731,VALID,322,VALID,0,
2011-03-01, 03:22:04,VALID,1007.55,VALID,0,VALID,104,VALID,0,VALID,22.9731,VALID,322,VALID,0,
2011-03-01, 03:23:04,VALID,1007.58,VALID,0,VALID,104,VALID,0,VALID,22.9536,VALID,322,VALID,0,
2011-03-01, 03:24:04,VALID,1007.59,VALID,0,VALID,104,VALID,0,VALID,22.9731,VALID,322,VALID,0,
2011-03-01, 03:25:04,VALID,1007.6,VALID,0,VALID,104,VALID,0,VALID,22.9731,VALID,322,VALID,0,
2011-03-01, 03:26:04,VALID,1007.61,VALID,0,VALID,104,VALID,0,VALID,22.9731,VALID,323,VALID,0,
2011-03-01, 03:27:04,VALID,1007.64,VALID,0,VALID,104,VALID,0,VALID,22.9731,VALID,322,VALID,0,
2011-03-01, 03:28:04,VALID,1007.67,VALID,0,VALID,104,VALID,0,VALID,22.9731,VALID,322,VALID,0,
2011-03-01, 03:29:04,VALID,1007.69,VALID,0,VALID,104,VALID,0,VALID,22.9926,VALID,322,VALID,0.00195313,
2011-03-01, 03:30:04,VALID,1007.69,VALID,0,VALID,104,VALID,0,VALID,22.9926,VALID,322,VALID,0,
2011-03-01, 03:31:04,VALID,1007.72,VALID,0,VALID,104,VALID,0,VALID,22.9926,VALID,322,VALID,0.00195313,
2011-03-01, 03:32:04,VALID,1007.71,VALID,0,VALID,104,VALID,0,VALID,22.9731,VALID,322,VALID,0,
2011-03-01, 03:33:04,VALID,1007.73,VALID,0,VALID,104,VALID,0,VALID,22.9731,VALID,322,VALID,0.05,
2011-03-01, 03:34:04,VALID,1007.73,VALID,0,VALID,104,VALID,0,VALID,22.9731,VALID,322,VALID,0,
2011-03-01, 03:35:04,VALID,1007.74,VALID,0,VALID,104,VALID,0,VALID,22.9731,VALID,322,VALID,0,
2011-03-01, 03:36:04,VALID,1007.74,VALID,0,VALID,104,VALID,0,VALID,22.9536,VALID,322,VALID,0,
2011-03-01, 03:37:04,VALID,1007.76,VALID,0,VALID,104,VALID,0,VALID,22.9129,VALID,322,VALID,0,
2011-03-01, 03:38:04,VALID,1007.77,VALID,0,VALID,104,VALID,0,VALID,22.9536,VALID,322,VALID,0,
2011-03-01, 03:39:04,VALID,1007.74,VALID,0,VALID,104,VALID,0,VALID,22.9342,VALID,323,VALID,0,
2011-03-01, 03:40:04,VALID,1007.77,VALID,0,VALID,104,VALID,0,VALID,22.9147,VALID,323,VALID,0,
2011-03-01, 03:41:04,VALID,1007.76,VALID,0,VALID,104,VALID,0,VALID,22.9359,VALID,322,VALID,0,
2011-03-01, 03:42:04,VALID,1007.75,VALID,0,VALID,104,VALID,0,VALID,22.9147,VALID,322,VALID,0.0839844,
2011-03-01, 03:43:04,VALID,1007.73,VALID,0,VALID,104,VALID,0,VALID,22.9147,VALID,322,VALID,0,
2011-03-01, 03:44:04,VALID,1007.72,VALID,0,VALID,104,VALID,0,VALID,22.8952,VALID,322,VALID,0,
2011-03-01, 03:45:04,VALID,1007.72,VALID,0,VALID,104,VALID,0,VALID,22.8952,VALID,322,VALID,0,
2011-03-01, 03:46:04,VALID,1007.72,VALID,0,VALID,104,VALID,0,VALID,22.874,VALID,322,VALID,0,
2011-03-01, 03:47:04,VALID,1007.74,VALID,0,VALID,104,VALID,0,VALID,22.8757,VALID,322,VALID,0,
2011-03-01, 03:48:04,VALID,1007.77,VALID,0,VALID,104,VALID,0,VALID,22.8757,VALID,322,VALID,0,
2011-03-01, 03:49:04,VALID,1007.78,VALID,0,VALID,104,VALID,0,VALID,22.8562,VALID,322,VALID,0,
2011-03-01, 03:50:04,VALID,1007.76,VALID,0,VALID,104,VALID,0,VALID,22.858,VALID,322,VALID,0,
2011-03-01, 03:51:04,VALID,1007.78,VALID,0,VALID,104,VALID,0,VALID,22.8368,VALID,322,VALID,0,
2011-03-01, 03:52:04,VALID,1007.75,VALID,0,VALID,104,VALID,0,VALID,22.8385,VALID,322,VALID,0.285937,
2011-03-01, 03:53:04,VALID,1007.73,VALID,0,VALID,104,VALID,0,VALID,22.8173,VALID,322,VALID,0.301953,
2011-03-01, 03:54:04,VALID,1007.68,VALID,0,VALID,104,VALID,0,VALID,22.8173,VALID,323,VALID,0.285156,
2011-03-01, 03:55:04,VALID,1007.73,VALID,0,VALID,104,VALID,0,VALID,22.8173,VALID,323,VALID,0.0945313,
2011-03-01, 03:56:04,VALID,1007.73,VALID,0,VALID,104,VALID,0,VALID,22.8173,VALID,323,VALID,0,
2011-03-01, 03:57:04,VALID,1007.76,VALID,0,VALID,104,VALID,0,VALID,22.8173,VALID,323,VALID,0,
2011-03-01, 03:58:04,VALID,1007.74,VALID,0,VALID,104,VALID,0,VALID,22.7995,VALID,323,VALID,0,
2011-03-01, 03:59:04,VALID,1007.76,VALID,0,VALID,104,VALID,0,VALID,22.7783,VALID,323,VALID,0,